Weather in Kurzhino

Russia / Tomsk District     58°54′33″N   82°33′53″E
temp.,
°C
wind,
m/s
gust,
m/s
humid.,
%
clouds,
%
prec.,
mm/h
press.,
hPa
HPBL,
m
19 september, sun
sun1901:00+6ssw399096 0.8 1003392
04:00+4ssw41091100 0.1 1003518
07:00+4ssw41087100 0.1 1003503
10:00+6s4886100 0.0 1003721
13:00+6sse4890100 0.2 1001956
16:00+7sse51095100 4.4 10001192
19:00+6s3897100 5.3 999526
22:00+6sw3798100 1.1 999456
20 september, mon
mon2001:00+4wsw2791100 1.3 1000373
04:00+3ssw2596100 0.0 1000200
07:00+1sw2798100 0.0 1002227
10:00+3sw3596100 0.3 1003603
13:00+3sw3595100 0.5 1004674
16:00+3sw3589100 0.2 1005692
19:00+2wsw2395100 0.3 1006145
22:00+2w2598100 0.1 1006384
21 september, tue
tue2101:00+2wsw2599100 0.4 1006336
04:00+2sw2698100 0.3 1007358
07:00+2wsw3698100 1.2 1007445
10:00+3nw4898100 1.5 1007874
13:00+2nw5998100 2.6 1009736
16:00+3nw5895100 0.2 1011814
19:00+2nw4897100 0.4 1013636
22:00+1wsw2395100 0.1 101481
22 september, wed
wed2201:00+1w3894100 0.2 1014301
04:000w3797100 0.0 1015242
07:00+1wsw2598100 0.1 1015279
10:00+1wsw2499100 0.3 1015195
13:00+2wsw2392100 0.7 1016493
16:00+3wsw2395100 0.4 1016387
19:00+2sw12100100 0.6 1017148
22:00+1sse019996 0.1 101882
23 september, thu
thu2301:00+1ene1297100 0.1 1019121
04:00+1ne1396100 0.0 1019156
07:00+1nne1396100 0.0 1020172
10:00+1n2393100 0.0 1022338
13:00+3n2383100 0.1 1023694
16:00+4nw2376100 0.3 1023729
19:00+2nw248599 0.4 1025138
22:00+1wnw2489100 0.1 102594